SL-3 DEB, 15769

Orbit data source: Space-Track

SL-3 DEB, 15769 is space debris in LEO originally from a launch on Thu, 14 May 1981 UTC launched from the Plesetsk Missile And Space Complex (PKMTR). Debris objects in space refer to the collection of defunct objects orbiting the Earth. Examples of debris include non-operational satellites, rocket bodies, and fragments generated from explosions, collisions, or faulty payload assembly.

Loading next visibility...
SL-3 DEB details
Identifier
15769, 1981-043C
Orbit
LEO
Last TLE update14 hours ago
Origin
Flag of CISRVSN (CIS)
ManufacturerUnknown
MissionSpacecraft
Bus & MotorUnknown
MassUnknown
Launch date (UTC)
1981-05-14 (44 years ago)
Launch vehicleUnknown
Launch site
Plesetsk Missile And Space Complex (PKMTR)
Object type
Payload
Rocket body
Debris
Shape & HBRUnknown
Radar Cross SectionSmall (<0.1 m²)

Expand to show TLE details & history

TLE from 14 hours ago
0 SL-3 DEB
1 15769U 81043C   24361.02149284  .00000360  00000-0  20405-3 0  9993
2 15769  81.2772 350.5067 0060714   4.5979 355.5734 14.07154742 78894
Epoch: 2024-12-26T00:30Z
Definitive object data (Epoch: 2024-12-26T00:30:56.981Z)
Latitude-0.00007°
Longitude-112.2376°
Altitude828.144 km
Speed7.461 km/s
True Right ascension23h 22m 01s
True Declination0° 00' 00"
Sunlit
Object was in daylight at TLE epoch
Visualization TLE readout
Latitude17.59351°
Longitude-110.01597°
Altitude828.876 km
Speed7.462 km/s
Apparent Right ascension00h 23m 03s
Apparent Declination-9° 32' 01"
Sunlit
Object is in daylight
Visualization observer readout
Local Sidereal Time13:36:51
Azimuth33.403° NE
Elevation-55.467°
Doppler factor1
Orbital elements
Apogee altitude910.285 km
Perigee altitude822.317 km
Semi-major axis7,244.438 km
Eccentricity0.0060714
Inclination81.2772°
RAAN350.5067°
Arg. of periapsis4.5979°
True anomaly355.51929°
Mean anomaly355.5734°
Eccentric anomaly355.54639°
Mean motion3.51995 °/min
BSTAR0.00020405
Orbital period102.27 mins
Loading maneuver chart data...
Loading historical data...
Loading historical data...
Loading historical data...
Loading historical data...
Loading historical data...
Loading historical data...
Loading historical data...

SL-3 DEB Visibility forecast

Observer location: undefined°, undefined

Span
Click to sort rows by Start time (UTC) header in descending order
Start Az.
Max El. time (UTC)
Max El. Az.
Max El.
End time (UTC)
End Az.
4 mins2024-12-26 22:51:02.801Z108.385° ESE2024-12-26 22:53:02.801Z86.479° E12.728°2024-12-26 22:55:02.801Z63.811° ENE
9 mins2024-12-27 00:32:02.801Z198.851° SSW2024-12-27 00:36:02.801Z296.009° NW43.358°2024-12-27 00:41:02.801Z4.456° NNE
10 mins2024-12-27 11:14:02.801Z352.958° N2024-12-27 11:18:02.801Z34.626° NE44.744°2024-12-27 11:24:02.801Z170.188° S
|